Retour au catalogue

STARLINK-35502

ActifCommunicationsVLEO
NORAD 66435·PAYLOAD·🇺🇸 United States

Lancé Nov 11, 2025 depuis Cape Canaveral Space Force Station

Loading…

Prochains Passages (prochaines 24 heures)

TLE

FraisSource: CelesTrak SupGP

Époque: Sep 15, 2026, 02:31 UTC

1 66435C 25259P   26258.10534722  .00013072  00000+0  47348-3 0  2583
2 66435  42.9998 284.2526 0001242 261.5637 121.7139 15.27571854    15

Suivez STARLINK-35502 en temps réel avec AllMySat

Download on the App Store